Date String (YYYY-MM-DD hh:mm:ss) UTC,Instrument flags,absolute air pressure of the measurement (hPa),sample flow rate (lpm),inlet stack bypass flow (lpm),air temperature of the measurement (°C),ambient temperature measured by the external sensor (°C),aerosol sample conditioner tube jacket temperature (°C),OPC LED temperature (°C),internal box temperature (°C),relative humidity of the measurement (%),span deviation,mass concentration of particles derived from Lorenz-Mie calculation of OPC scattering (μg/m³),mass concentration of particles derived from Lorenz-Mie calculation of OPC scattering (μg/m³),mass concentration of particles derived from Lorenz-Mie calculation of OPC scattering (μg/m³)
DateTimeUTC,F1_M11,P_M11,Q1_M11,Q2_M11,T1_M11,T2_M11,T3_M11,T4_M11,T5_M11,U1_M11,ZSPAN_M11,X0_M11,X2_M11,X1_M11
2024-02-29 07:00:00,SystemResetWarning,0826.9,5.00,000.00,020.7,019.8,000.0,029.1,022.4,07.2,0000.0,0009.66,0003.73,0002.10
2024-02-29 07:01:00,SystemResetWarning,0826.9,5.01,000.00,020.7,019.8,000.0,029.1,022.4,07.2,0000.0,0009.74,0003.77,0002.10
2024-02-29 07:02:00,SystemResetWarning,0827.0,5.01,000.00,020.7,019.8,000.0,029.1,022.4,07.3,0000.0,0009.55,0003.76,0002.11
2024-02-29 07:03:00,SystemResetWarning,0826.9,5.01,000.00,020.6,019.8,000.0,029.1,022.4,07.4,0000.0,0010.16,0003.76,0002.11
2024-02-29 07:04:00,SystemResetWarning,0826.9,5.00,000.00,020.6,019.8,000.0,029.1,022.4,07.2,0000.0,0010.07,0003.66,0002.08
2024-02-29 07:05:00,SystemResetWarning,0826.9,5.00,000.00,020.6,019.8,000.0,029.1,022.4,07.1,0000.0,0009.67,0003.59,0002.06
2024-02-29 07:06:00,SystemResetWarning,0826.9,4.99,000.00,020.6,019.8,000.0,029.1,022.3,07.3,0000.0,0009.70,0003.61,0002.06
2024-02-29 07:07:00,SystemResetWarning,0827.0,5.00,000.00,020.6,019.8,000.0,029.1,022.4,07.6,0000.0,0010.29,0003.64,0002.07
2024-02-29 07:08:00,SystemResetWarning,0826.9,5.01,000.00,020.6,019.8,000.0,029.1,022.4,07.6,0000.0,0010.17,0003.66,0002.04
2024-02-29 07:09:00,SystemResetWarning,0826.9,5.01,000.00,020.6,019.8,000.0,029.1,022.4,07.6,0000.0,0010.22,0003.68,0002.02
2024-02-29 07:10:00,SystemResetWarning,0826.9,5.01,000.00,020.6,019.8,000.0,029.1,022.3,07.4,0000.0,0010.09,0003.63,0002.01
2024-02-29 07:11:00,SystemResetWarning,0826.9,4.99,000.00,020.6,019.8,000.0,029.1,022.3,07.4,0000.0,0010.06,0003.64,0002.01
2024-02-29 07:12:00,SystemResetWarning,0826.9,4.99,000.00,020.6,019.7,000.0,029.1,022.3,07.5,0000.0,0010.09,0003.64,0001.98
2024-02-29 07:13:00,SystemResetWarning,0827.0,5.00,000.00,020.5,019.7,000.0,029.0,022.3,07.6,0000.0,0010.25,0003.67,0001.96
2024-02-29 07:14:00,SystemResetWarning,0827.0,5.00,000.00,020.5,019.7,000.0,029.0,022.3,07.7,0000.0,0009.57,0003.64,0001.96
2024-02-29 07:15:00,SystemResetWarning,0826.9,5.00,000.00,020.5,019.7,000.0,029.0,022.3,07.8,0000.0,0009.35,0003.67,0001.98
2024-02-29 07:16:00,SystemResetWarning,0827.0,5.01,000.00,020.5,019.7,000.0,029.0,022.3,07.9,0000.0,0009.66,0003.76,0002.01
2024-02-29 07:17:00,SystemResetWarning,0826.9,5.01,000.00,020.5,019.7,000.0,029.0,022.3,07.9,0000.0,0009.70,0003.75,0001.99
2024-02-29 07:18:00,SystemResetWarning,0826.9,5.00,000.00,020.5,019.7,000.0,029.0,022.3,07.8,0000.0,0008.92,0003.77,0001.99
2024-02-29 07:19:00,SystemResetWarning,0827.0,5.00,000.00,020.5,019.7,000.0,029.0,022.3,07.8,0000.0,0009.11,0003.76,0002.00
2024-02-29 07:20:00,SystemResetWarning,0826.9,5.00,000.00,020.5,019.7,000.0,029.0,022.3,07.8,0000.0,0008.99,0003.71,0002.02
2024-02-29 07:21:00,SystemResetWarning,0826.9,4.99,000.00,020.5,019.7,000.0,029.0,022.3,07.7,0000.0,0009.01,0003.73,0002.02
2024-02-29 07:22:00,SystemResetWarning,0826.9,5.00,000.00,020.5,019.7,000.0,029.0,022.3,07.5,0000.0,0009.26,0003.75,0002.04
2024-02-29 07:23:00,SystemResetWarning,0826.9,4.99,000.00,020.5,019.7,000.0,029.0,022.2,07.2,0000.0,0009.46,0003.80,0002.06
2024-02-29 07:24:00,SystemResetWarning,0826.9,5.01,000.00,020.5,019.7,000.0,029.0,022.2,07.1,0000.0,0009.47,0003.80,0002.08
2024-02-29 07:25:00,SystemResetWarning,0826.9,5.00,000.00,020.5,019.7,000.0,029.0,022.2,07.2,0000.0,0009.47,0003.77,0002.08
2024-02-29 07:26:00,SystemResetWarning,0826.9,5.01,000.00,020.5,019.8,000.0,029.0,022.2,07.4,0000.0,0010.27,0003.79,0002.08
2024-02-29 07:27:00,SystemResetWarning,0826.9,5.00,000.00,020.5,019.8,000.0,029.0,022.2,07.4,0000.0,0010.44,0003.75,0002.07
2024-02-29 07:28:00,SystemResetWarning,0827.0,4.99,000.00,020.5,019.7,000.0,029.0,022.2,07.7,0000.0,0010.70,0003.78,0002.08
2024-02-29 07:29:00,SystemResetWarning,0826.9,5.00,000.00,020.5,019.7,000.0,028.9,022.2,08.2,0000.0,0010.40,0003.76,0002.09
2024-02-29 07:30:00,SystemResetWarning,0827.0,5.01,000.00,020.5,019.7,000.0,028.9,022.2,07.9,0000.0,0009.94,0003.76,0002.12
2024-02-29 07:31:00,SystemResetWarning,0827.0,5.01,000.00,020.5,019.7,000.0,028.9,022.2,07.5,0000.0,0009.94,0003.77,0002.14
2024-02-29 07:32:00,SystemResetWarning,0826.9,5.01,000.00,020.5,019.7,000.0,028.9,022.2,07.5,0000.0,0009.96,0003.73,0002.14
2024-02-29 07:33:00,SystemResetWarning,0826.9,5.00,000.00,020.5,019.7,000.0,028.9,022.3,07.5,0000.0,0010.04,0003.74,0002.17
2024-02-29 07:34:00,SystemResetWarning,0826.9,5.00,000.00,020.5,019.7,000.0,028.9,022.2,07.6,0000.0,0009.85,0003.73,0002.18
2024-02-29 07:35:00,SystemResetWarning,0826.9,4.99,000.00,020.5,019.7,000.0,028.9,022.2,07.7,0000.0,0009.68,0003.70,0002.20
2024-02-29 07:36:00,SystemResetWarning,0827.0,5.00,000.00,020.5,019.8,000.0,028.9,022.3,07.7,0000.0,0009.42,0003.67,0002.22
2024-02-29 07:37:00,SystemResetWarning,0827.1,5.00,000.00,020.5,019.8,000.0,028.9,022.2,07.8,0000.0,0009.52,0003.74,0002.25
2024-02-29 07:38:00,SystemResetWarning,0827.1,5.00,000.00,020.5,019.8,000.0,028.9,022.3,07.8,0000.0,0009.27,0003.81,0002.29
2024-02-29 07:39:00,SystemResetWarning,0827.1,5.00,000.00,020.5,019.8,000.0,028.9,022.3,07.8,0000.0,0009.38,0003.84,0002.32
2024-02-29 07:40:00,SystemResetWarning,0827.1,5.00,000.00,020.5,019.8,000.0,028.9,022.3,07.9,0000.0,0009.61,0003.85,0002.35
2024-02-29 07:41:00,SystemResetWarning,0827.1,5.01,000.00,020.5,019.8,000.0,028.9,022.2,07.9,0000.0,0009.58,0003.83,0002.35
2024-02-29 07:42:00,SystemResetWarning,0827.1,5.00,000.00,020.5,019.8,000.0,028.9,022.3,07.9,0000.0,0009.51,0003.84,0002.38
2024-02-29 07:43:00,SystemResetWarning,0827.0,5.00,000.00,020.5,019.8,000.0,028.9,022.3,08.0,0000.0,0010.11,0003.91,0002.39
2024-02-29 07:44:00,SystemResetWarning,0827.0,5.00,000.00,020.5,019.8,000.0,028.9,022.3,08.0,0000.0,0009.95,0003.94,0002.37
2024-02-29 07:45:00,SystemResetWarning,0827.0,5.00,000.00,020.5,019.8,000.0,028.9,022.3,08.0,0000.0,0009.88,0003.93,0002.35
2024-02-29 07:46:00,SystemResetWarning,0827.0,4.99,000.00,020.5,019.8,000.0,028.9,022.2,08.0,0000.0,0010.05,0003.96,0002.35
2024-02-29 07:47:00,SystemResetWarning,0827.0,5.00,000.00,020.5,019.8,000.0,028.9,022.3,08.1,0000.0,0010.37,0004.06,0002.37
2024-02-29 07:48:00,SystemResetWarning,0827.0,5.00,000.00,020.5,019.8,000.0,028.9,022.3,08.1,0000.0,0010.27,0004.05,0002.37
2024-02-29 07:49:00,SystemResetWarning,0827.0,5.01,000.00,020.5,019.8,000.0,028.9,022.3,08.2,0000.0,0010.57,0004.04,0002.36
2024-02-29 07:50:00,SystemResetWarning,0827.0,5.00,000.00,020.5,019.8,000.0,028.9,022.3,08.2,0000.0,0010.35,0004.04,0002.35
2024-02-29 07:51:00,SystemResetWarning,0827.0,5.00,000.00,020.5,019.8,000.0,028.9,022.3,08.1,0000.0,0010.21,0004.08,0002.34
2024-02-29 07:52:00,SystemResetWarning,0827.0,5.00,000.00,020.5,019.8,000.0,028.9,022.2,08.2,0000.0,0010.55,0004.10,0002.35
2024-02-29 07:53:00,SystemResetWarning,0826.9,5.00,000.00,020.5,019.8,000.0,028.8,022.2,08.2,0000.0,0010.71,0004.12,0002.34
2024-02-29 07:54:00,SystemResetWarning,0826.9,5.00,000.00,020.5,019.8,000.0,028.8,022.2,08.3,0000.0,0010.42,0004.07,0002.31
2024-02-29 07:55:00,SystemResetWarning,0826.9,4.99,000.00,020.5,019.8,000.0,028.8,022.2,08.2,0000.0,0010.00,0004.01,0002.31
2024-02-29 07:56:00,SystemResetWarning,0826.8,5.01,000.00,020.5,019.8,000.0,028.8,022.2,08.3,0000.0,0010.05,0004.01,0002.31
2024-02-29 07:57:00,SystemResetWarning,0826.8,5.01,000.00,020.5,019.8,000.0,028.8,022.2,08.3,0000.0,0010.08,0003.99,0002.31
2024-02-29 07:58:00,SystemResetWarning,0826.9,5.00,000.00,020.5,019.8,000.0,028.8,022.2,08.4,0000.0,0010.22,0003.97,0002.31
2024-02-29 07:59:00,SystemResetWarning,0826.8,5.00,000.00,020.5,019.7,000.0,028.8,022.2,08.5,0000.0,0010.28,0003.95,0002.29
